Погода в Истоке

Россия / Свердловская область     56°47′09″N   60°53′09″E
темп.,
°C
ветер,
м/с
пор.,
м/с
влажн.,
%
обл.,
%
осадки,
мм/ч
давл.,
гПа
погр.,
м
24 мая, вт
вт2423:00+6ююв2795100 0.6 1003562
02:00+6ю2598100 0.0 1004222
05:00+5юз129665 0.0 100541
08:00+8ююз2379100 0.0 1007367
11:00+9ююв247971 0.1 1008364
14:00+12ю257410 0.3 1009448
17:00+16ююв2362100 0.3 1008995
20:00+12вюв239098 0.0 101094
25 мая, ср
ср2523:00+11в2397100 0.0 101081
02:00+12вюв3998100 2.2 1008268
05:00+11в31198100 2.9 1007348
08:00+14юв3788100 0.1 1006254
11:00+19юв4761100 0.1 1006602
14:00+22ююв71347100 0.0 10052291
17:00+18юв41161100 0.1 1005516
20:00+19ююв7155998 0.1 10031129
26 мая, чт
чт2623:00+9з51092100 1.0 1008459
02:00+8з378970 0.0 1009367
05:00+7зсз2595100 0.0 1009165
08:00+8зюз1396100 6.9 1010197
11:00+10зсз477399 8.2 1011913
14:00+12сз4649100 0.1 10111492
17:00+13сз4746100 0.1 10111660
20:00+11зсз41057100 0.0 1011640
27 мая, пт
пт2723:00+7зсз31074100 0.0 1013356
02:00+4з39905 0.0 1014245
05:00+3з38920 0.0 1014203
08:00+9з49631 0.0 1014797
11:00+13з464831 0.0 10131668
14:00+16зюз454214 0.0 10121850
17:00+17юз454190 0.0 10122028
20:00+13юз2364100 0.0 101267
28 мая, сб
сб2823:00+9ю2277100 0.0 101316
02:00+8ююв229099 0.0 101316
05:00+9ююв2286100 0.0 101249
08:00+13ю127017 0.0 1012293
11:00+17ю464771 0.0 10111681
14:00+18ююз3448100 0.0 10112039
17:00+16юз126190 0.1 1012379
20:00+15ююз117029 0.0 101316